Change the Weather History Date:

Monday, March 11, 2013

  Actual Average Record
Temperature  
Mean Temperature 38 °F -  
Max Temperature 60 °F 56 °F 89 °F (1989)
Min Temperature 17 °F 32 °F -15 °F (1948)
Degree Days  
Heating Degree Days 26    
Moisture  
Dew Point 19 °F    
Average Humidity 48    
Maximum Humidity 77    
Minimum Humidity 12    
Precipitation  
Precipitation 0.00 in - - ()
Sea Level Pressure  
Sea Level Pressure 30.02 in    
Wind  
Wind Speed 10 mph (NW)    
Max Wind Speed 15 mph    
Max Gust Speed 21 mph    
Visibility 10 miles    
Events      
Averages and records for this station are not official NWS values.
T = Trace of Precipitation, MM = Missing Value Source: NWS Daily Summary

Daily Weather History Graph

Daily Weather History Graph

Search for Another Location

Airport or City:

Trip Planner

Search our weather history database for the weather conditions in past years. The results will help you decide how hot, cold, wet, or windy it might be!

Date:

Astronomy

Mar. 11, 2013 Rise Set
Actual Time 7:56 AM CDT 7:43 PM CDT
Civil Twilight 7:30 AM CDT 8:09 PM CDT
Nautical Twilight 7:00 AM CDT 8:40 PM CDT
Astronomical Twilight 6:29 AM CDT 9:10 PM CDT
Moon 7:31 AM CDT (3/11) 7:56 PM CDT (3/11)
Length of Visible Light 12h 39m
Length of Day
11h 47m
Waning Crescent, 0% of the Moon is Illuminated
Mar 11
Waning Crescent
Mar 11
New
Mar 19
First Quarter
Mar 27
Full
Apr 2
Last Quarter

Hourly Weather History & Observations

Time (CDT) Temp. Windchill Dew Point Humidity Pressure Visibility Wind Dir Wind Speed Gust Speed Precip Events Conditions
12:52 AM 19.9 °F 7.9 °F 12.0 °F 71% 30.10 in 10.0 mi NW 11.5 mph - N/A   Clear
1:52 AM 19.0 °F 5.0 °F 12.0 °F 74% 30.09 in 10.0 mi WNW 15.0 mph - N/A   Clear
2:52 AM 19.0 °F 6.1 °F 10.9 °F 71% 30.09 in 10.0 mi NW 12.7 mph - N/A   Clear
3:52 AM 19.0 °F 7.5 °F 10.9 °F 71% 30.08 in 10.0 mi WNW 10.4 mph - N/A   Clear
4:52 AM 19.4 °F 7.9 °F 12.2 °F 74% 29.99 in 10.0 mi NW 10.4 mph - N/A   Clear
5:52 AM 19.0 °F 10.0 °F 10.9 °F 71% 30.04 in 10.0 mi WNW 6.9 mph - N/A   Clear
6:52 AM 19.0 °F 13.9 °F 10.9 °F 71% 30.05 in 10.0 mi WNW 3.5 mph - N/A   Clear
7:52 AM 17.1 °F 10.0 °F 10.9 °F 77% 30.06 in 10.0 mi SW 4.6 mph - N/A   Clear
8:52 AM 23.0 °F 18.4 °F 15.1 °F 72% 30.06 in 10.0 mi West 3.5 mph - N/A   Clear
9:52 AM 33.1 °F 27.7 °F 19.9 °F 59% 30.06 in 10.0 mi West 5.8 mph - N/A   Clear
10:52 AM 37.0 °F 34.5 °F 19.0 °F 48% 30.04 in 10.0 mi WNW 3.5 mph - N/A   Clear
11:52 AM 43.0 °F 39.5 °F 19.0 °F 38% 30.02 in 10.0 mi West 5.8 mph - N/A   Clear
12:52 PM 46.9 °F - 21.0 °F 36% 30.01 in 10.0 mi WSW 5.8 mph - N/A   Clear
1:52 PM 55.0 °F - 21.0 °F 27% 29.97 in 10.0 mi WNW 10.4 mph 17.3 mph N/A   Clear
2:52 PM 57.0 °F - 19.0 °F 23% 29.94 in 10.0 mi NW 12.7 mph 18.4 mph N/A   Clear
3:52 PM 59.0 °F - 19.9 °F 22% 29.94 in 10.0 mi NNW 13.8 mph 20.7 mph N/A   Clear
4:52 PM 57.9 °F - 23.0 °F 26% 29.94 in 10.0 mi North 15.0 mph - N/A   Clear
5:52 PM 57.9 °F - 23.0 °F 26% 29.93 in 10.0 mi North 10.4 mph - N/A   Clear
6:52 PM 54.0 °F - 24.1 °F 31% 29.95 in 10.0 mi ENE 4.6 mph - N/A   Clear
7:52 PM 48.9 °F - 27.0 °F 43% 29.97 in 10.0 mi ENE 6.9 mph - N/A   Overcast
8:52 PM 45.0 °F 41.2 °F 28.0 °F 52% 29.99 in 10.0 mi NE 6.9 mph - N/A   Scattered Clouds
9:52 PM 46.0 °F 40.2 °F 27.0 °F 47% 30.00 in 10.0 mi North 12.7 mph 16.1 mph N/A   Mostly Cloudy
10:52 PM 46.0 °F 41.0 °F 28.9 °F 51% 30.03 in 10.0 mi NNE 10.4 mph - N/A   Overcast
11:52 PM 45.0 °F 39.3 °F 30.0 °F 56% 30.06 in 10.0 mi NNE 11.5 mph - N/A   Overcast